Tracking 31032 objects as of 13-Jul-2025
HD Live streaming from Space Station
objects crossing your sky now

YUNHAI 3

Track YUNHAI 3 now!
10-day predictions


NORAD ID: 54235
Int'l Code: 2022-151A
Perigee: 854.0 km
Apogee: 855.6 km
Inclination: 98.8 °
Period: 101.9 minutes
Semi major axis: 7225 km
RCS: Unknown
Launch date: November 11, 2022
Source: People's Republic of China (PRC)
Launch site: Taiyaun Space Center, China (TSC)
Your satellite tracking list
Your tracking list is empty




NASA's NSSDC Master Catalog

Two Line Element Set (TLE):
1 54235U 22151A   25194.83406995 -.00000024  00000-0  10690-4 0  9992
2 54235  98.8179 202.0074 0001074  42.0185 318.1070 14.13432800137704
Source of the keplerian elements: AFSPC